Location: Veytaux
(46.4185°N, 6.9320°E)
Time: 22:01:37
(UTC+00:00)

Cosmos 1656 Rocket - Pass Details

Date: 27 May 2022
Orbit: 796 x 845 km, 71.1° (Epoch: 03 July)

Event Time Altitude Azimuth Distance (km) Brightness Sun altitude
Rises 01:39:19 0° 336° (NNW) 3,313 7.3 -16.2°
Reaches altitude 10° 01:41:48 10° 341° (NNW) 2,378 6.6 -16.0°
Maximum altitude 01:47:07 53° 59° (ENE) 972 4.4 -15.5°
Drops below altitude 10° 01:52:24 10° 136° (SE) 2,370 5.9 -15.0°
Sets 01:54:52 0° 141° (SE) 3,301 6.6 -14.7°
